AirNav   ProFlight Series 2 Aviation Headset
 
 1022 users online  

75MU Pershing Regional Health Center -Marceline Heliport
Marceline, Missouri, USA

GOING TO MARCELINE?


FAA INFORMATION EFFECTIVE 16 JULY 2020

Location

FAA Identifier: 75MU
Lat/Long: 39-43-46.8600N 092-56-40.4900W
39-43.781000N 092-56.674833W
39.7296833,-92.9445806
(estimated)
Elevation: 860 ft. / 262 m (estimated)
Variation: 04E (1985)
From city: 1 mile NE of MARCELINE, MO
Time zone: UTC -5 (UTC -6 during Standard Time)
Zip code: 64658

Heliport Operations

Heliport use: Private use, MEDICAL.
Activation date: 06/1987
Control tower: no
ARTCC: KANSAS CITY CENTER
FSS: COLUMBIA FLIGHT SERVICE STATION
Attendance: UNATNDD
Segmented circle: no

Heliport Communications

WX AWOS-AV at MO8 (4 nm NW): 118.425 (660-258-2151)

Nearby radio navigation aids

VOR radial/distance  VOR name  Freq  Var
MCMr276/21.8MACON VOR/DME112.9006E
IRKr208/29.2KIRKSVILLE VORTAC114.6006E

 
NDB name  Hdg/Dist  Freq  Var  ID
TRENTON122/36.540003ETRX - .-. -..-

Heliport Services

Runway Information

Helipad H1

Dimensions: 20 x 20 ft. / 6 x 6 m
Surface: concrete
Latitude: 39-43.781000N
Longitude: 092-56.674833W
Elevation: 860.0 ft.
Traffic pattern: leftleft

Heliport Ownership and Management from official FAA records

Ownership: Privately-owned
Owner: PERSHING REGL HEALTH CENTER
225 W. HAYDEN
MARCELINE, MO 64658
Phone 816-376-3521
Manager: ED MURPHY
225 W HAYDEN
MARCELINE, MO 64658
Phone 816-376-2222

Additional Remarks

FOR CD CTC KANSAS CITY ARTCC AT 913-254-8508.

Instrument Procedures

There are no published instrument procedures at 75MU.

Some nearby airports with instrument procedures:

MO8 - North Central Missouri Regional Airport (4 nm NW)
K89 - Macon-Fower Memorial Airport (23 nm E)
KCHT - Chillicothe Municipal Airport (26 nm W)
KIRK - Kirksville Regional Airport (29 nm NE)
KMBY - Omar N Bradley Airport (29 nm SE)
 
Loc | Ops | Rwys | IFR | FBO | Links
Com | Nav | Svcs | Stats | Notes
Area around 75MU (Pershing Regional Health Center -Marceline Heliport)
 
Road maps at: MapQuest Bing Google
 
Aerial photo
No photo
 
Sectional chart

 
Airport distance calculator
Flying to Pershing Regional Health Center -Marceline Heliport? Find the distance to fly.

From to 75MU

Sunrise and sunset
Times for 11-Aug-2020
 Local
(UTC-5)
 Zulu
(UTC)
Morning civil twilight05:5310:53
Sunrise06:2211:22
Sunset20:1201:12
Evening civil twilight20:4101:41

Current date and time
Zulu (UTC)  12-Aug-2020 00:59:28
Local (UTC-5)  11-Aug-2020 19:59:28
 
METAR
KIRK 
29nm NE 
112355Z AUTO 10005KT 10SM CLR 25/19 A3000 RMK AO2 SLP157 T02500189 10278 20250 58006
KMBY 
29nm SE 
120055Z AUTO 09004KT 10SM SCT019 BKN024 OVC050 26/21 A3000 RMK AO2 LTG DSNT SW
KCDJ 
30nm W 
120052Z AUTO 00000KT 27/22 A2999 RMK AO1 SLP145 T02670222
KMHL 
40nm S 
120055Z AUTO 03003KT 10SM TS CLR 23/20 A2999 RMK AO2 LTG DSNT S
KVER 
49nm S 
120055Z AUTO 00000KT 10SM SCT029 26/23 A2999 RMK AO2 LTG DSNT E AND W T02600227
TAF
NOTAMs
Click for the latest NOTAMs
NOTAMs are issued by the DoD/FAA and will open in a separate window not controlled by AirNav.

 

 
 

Would you like to see your business listed on this page?

 If your business provides an interesting product or service to pilots, flight crews, aircraft, or users of the Pershing Regional Health Center -Marceline Heliport, you should consider listing it here.  To start the listing process, click on the button below
 
Add a business
 

Other Pages about Pershing Regional Health Center -Marceline Heliport

Update a link
 
Copyright © AirNav, LLC. All rights reserved. Privacy Policy  Contact